Temp
63 63 63 62 62 62 62 62 62 62 63 63 63 63 63 63 65 83 91 86 87 74 77 99 97 100 102 98 102 103 86 82 81 65 84 100 96 101 103 97 98 99 95 95 97
64 63 62 62 62 62 62 62 62 62 62 62 62 62 63 62 82 91 81 79 77 76 92 96 94 98 95 97 98 94 86 83 81 87 92 99 99 99 98 95 92 94 96 97 97
63 63 62 62 62 62 62 62 62 62 62 62 62 62 62 67 84 92 78 78 77 79 93 99 102 99 92 97 97 95 87 95 93 98 100 98 99 102 97 91 94 90 92 94 95
62 62 62 62 62 62 62 62 62 62 62 62 62 62 62 81 78 93 78 77 77 92 94 98 97 92 90 89 98 90 96 97 99 100 98 96 101 98 98 96 100 98 97 95 94
61 61 61 61 61 62 62 62 62 62 61 61 62 62 76 87 91 92 78 79 91 92 92 96 93 92 88 92 96 92 95 98 100 99 99 100 97 97 97 101 102 100 97 95 95
60 60 60 60 61 61 61 61 60 60 61 61 62 61 78 77 104 99 98 94 97 97 98 99 95 98 93 93 92 97 97 97 99 98 99 96 97 98 98 102 98 97 96 96 96
60 60 60 60 60 60 60 60 59 60 61 62 63 73 79 82 105 105 103 100 101 100 96 102 102 95 95 90 98 96 90 94 96 98 96 100 92 93 100 100 97 96 96 96 96
60 59 59 59 60 60 60 60 60 60 62 63 65 73 74 101 105 103 103 100 103 103 101 103 103 97 92 97 94 88 89 81 93 96 98 96 82 94 101 98 95 96 96 95 96
59 59 59 59 59 60 59 59 60 61 63 65 71 77 77 91 94 102 103 97 100 100 101 102 98 91 92 83 81 84 76 81 87 97 96 94 84 86 100 99 95 95 94 95 95
59 58 58 58 59 58 58 58 64 66 72 82 84 78 87 89 97 98 102 100 95 95 92 91 89 83 85 82 70 76 77 83 83 93 94 91 88 92 99 99 97 94 95 95 94
58 58 58 58 58 58 61 74 76 73 79 78 83 82 91 97 100 95 99 96 95 90 80 87 80 76 82 85 87 86 85 81 87 95 91 89 90 92 97 97 96 97 95 95 94
58 58 57 57 58 57 64 76 78 80 69 83 84 86 93 98 87 91 98 86 85 79 84 81 75 85 89 89 86 85 83 84 90 94 90 87 87 92 95 93 94 94 95 97 96
57 57 57 57 58 63 79 79 88 88 70 79 84 83 87 93 85 88 93 89 83 80 81 77 83 89 86 86 84 84 82 83 84 89 90 87 83 87 92 93 92 92 94 95 96
56 56 57 56 60 80 80 86 89 88 64 76 82 85 87 90 82 95 98 89 84 79 82 81 88 87 84 83 86 78 88 87 86 83 74 85 70 82 86 86 88 88 90 92 93
57 57 56 56 67 78 81 88 89 81 55 84 84 96 92 83 88 87 96 90 80 82 83 77 80 82 81 83 88 81 90 86 85 82 81 80 74 81 88 80 84 86 88 89 91
56 56 56 72 73 83 86 87 82 62 55 77 84 81 80 84 83 89 87 91 90 83 85 83 92 87 86 89 89 90 86 85 85 80 69 77 77 77 81 82 82 85 86 86 88
56 56 57 69 71 84 84 78 61 57 79 75 77 82 80 78 79 81 80 76 74 67 70 80 82 90 91 82 88 85 79 67 64 65 65 80 76 78 85 85 85 83 82 84 85
55 54 64 76 83 83 78 67 52 69 71 80 77 77 73 80 79 79 77 73 79 78 74 70 68 83 89 83 79 80 78 68 57 62 69 81 72 75 86 88 87 84 84 83 83
54 72 74 82 83 80 69 58 63 68 75 71 72 68 70 77 78 78 75 75 79 79 69 71 71 87 88 88 86 80 74 82 71 75 71 76 74 81 84 82 82 81 82 80 82
64 74 78 83 82 75 64 55 65 74 75 74 62 68 63 71 72 74 74 80 79 84 84 77 69 83 86 88 88 83 87 71 74 59 59 68 68 68 74 76 78 78 80 80 82
63 69 77 82 80 67 57 63 69 77 75 69 66 64 67 67 70 68 70 81 84 83 85 81 74 76 84 78 76 79 78 78 76 73 65 59 64 86 76 80 77 79 81 81 83
68 64 77 79 62 67 62 68 64 70 74 70 70 68 65 67 64 64 67 75 87 86 77 82 76 69 76 85 87 84 80 79 69 64 71 67 65 85 73 72 77 76 78 82 83
65 72 76 74 57 63 67 67 70 68 67 66 65 68 70 65 58 64 71 82 86 85 79 80 72 64 68 78 83 78 82 82 78 71 67 65 67 75 64 60 67 72 77 81 83
63 62 68 69 68 59 58 59 60 69 67 67 65 67 65 64 67 62 68 77 84 86 76 78 74 69 65 71 78 73 79 81 76 68 70 72 70 67 60 64 70 74 78 80 82
64 64 64 57 63 61 60 59 56 57 66 67 62 63 61 58 59 59 67 71 74 78 79 77 68 73 76 76 81 79 79 80 76 77 71 76 73 79 75 73 76 79 81 80 79
58 60 60 60 62 58 56 55 57 59 61 58 55 61 61 54 56 51 60 61 63 71 79 79 69 73 71 78 80 77 80 81 81 81 80 80 61 67 65 68 69 74 77 74 74
66 66 59 55 57 56 57 55 57 61 61 66 62 61 59 61 63 64 65 64 70 66 66 73 71 68 63 74 77 70 77 80 82 84 82 75 66 71 67 70 73 74 73 72 73
MSLP
1019.44 1019.18 1018.69 1018.18 1017.84 1017.53 1016.93 1016.55 1015.83 1015.41 1014.80 1014.19 1013.45 1012.66 1011.82 1011.28 1009.83 1009.01 1007.33 1007.32 1007.04 1006.70 1007.06 1005.73 1005.55 1004.57 1003.91 1002.99 1002.05 1001.44 1000.97 1000.28 1001.17 1002.03 1000.15 998.56 998.11 998.72 999.32 1000.15 1001.15 1002.02 1003.00 1004.70 1005.84
1018.94 1018.79 1018.56 1018.14 1017.88 1017.45 1016.89 1016.28 1015.76 1015.39 1014.62 1014.07 1013.47 1012.57 1011.65 1011.40 1009.43 1007.14 1006.89 1006.79 1006.83 1006.92 1006.61 1005.17 1004.44 1003.92 1003.21 1002.23 1001.63 1001.02 1000.26 1000.56 1002.16 1001.04 999.39 998.76 998.16 998.50 998.73 999.73 1001.43 1002.27 1003.64 1004.90 1005.60
1018.75 1018.54 1018.29 1017.98 1017.65 1017.31 1016.85 1016.16 1015.72 1015.16 1014.52 1014.08 1013.46 1012.53 1011.38 1011.34 1008.67 1006.28 1006.61 1006.65 1006.81 1006.97 1006.41 1005.07 1003.80 1003.34 1002.74 1001.90 1000.88 1000.48 999.94 999.46 999.80 999.44 999.06 998.47 998.15 998.53 998.61 999.70 1000.68 1002.28 1003.62 1004.82 1005.50
1018.89 1018.56 1018.26 1017.92 1017.52 1017.10 1016.78 1016.10 1015.48 1014.97 1014.50 1014.08 1013.44 1012.65 1010.99 1010.12 1007.28 1006.30 1006.57 1006.64 1006.96 1006.67 1006.19 1004.53 1003.77 1003.01 1002.48 1001.56 1000.67 1000.19 999.81 999.33 998.89 999.33 999.01 998.66 998.50 998.31 998.89 999.99 1000.97 1002.18 1003.41 1004.51 1005.21
1018.88 1018.72 1018.40 1018.05 1017.64 1017.04 1016.29 1015.82 1015.39 1014.76 1014.32 1013.83 1013.35 1012.84 1010.97 1007.92 1005.51 1006.17 1006.67 1006.66 1006.85 1006.58 1005.63 1004.07 1003.47 1002.96 1002.11 1001.42 1000.48 1000.02 999.57 999.22 998.97 999.11 999.03 998.93 998.56 998.51 999.00 1000.04 1001.18 1002.26 1003.29 1004.22 1004.85
1018.73 1018.11 1017.87 1017.46 1017.08 1016.61 1016.14 1015.74 1015.08 1014.57 1014.03 1013.71 1013.33 1012.99 1011.22 1007.66 1004.45 1005.23 1005.61 1006.04 1005.88 1005.34 1004.34 1003.59 1003.08 1002.54 1001.94 1001.27 1000.39 999.75 999.52 999.28 998.79 998.81 998.91 998.79 998.36 998.77 999.29 1000.12 1001.38 1002.31 1003.14 1003.94 1004.53
1018.77 1018.41 1017.98 1017.44 1016.84 1016.27 1015.70 1015.26 1014.94 1014.38 1013.98 1013.23 1013.16 1012.74 1009.99 1006.63 1004.26 1004.28 1004.80 1004.76 1004.89 1004.37 1003.81 1003.17 1002.88 1002.75 1002.31 1001.59 1000.92 1000.08 999.55 999.33 998.94 998.63 998.68 998.62 998.45 998.37 999.24 1000.11 1000.99 1001.89 1002.80 1003.65 1004.25
1018.64 1018.21 1017.72 1017.30 1016.69 1015.92 1015.31 1014.71 1014.09 1013.74 1013.14 1012.75 1012.86 1012.02 1008.47 1004.71 1004.17 1003.93 1004.27 1004.28 1004.23 1004.07 1003.88 1003.40 1003.10 1002.87 1002.69 1001.98 1001.11 1000.71 1000.12 999.35 998.64 998.59 998.45 998.63 998.69 998.53 999.30 999.71 1000.67 1001.44 1002.60 1003.52 1003.91
1018.57 1018.14 1017.74 1016.96 1016.24 1015.42 1014.53 1013.80 1013.27 1012.78 1012.65 1012.48 1012.16 1010.49 1006.46 1004.37 1004.12 1003.64 1003.84 1003.83 1003.80 1003.98 1003.91 1003.78 1003.58 1003.14 1002.78 1002.35 1001.43 1000.86 999.89 999.20 998.12 997.82 997.94 998.13 998.85 999.66 998.95 999.31 999.98 1000.96 1002.18 1003.09 1003.78
1018.72 1018.18 1017.53 1016.78 1015.94 1015.09 1014.20 1012.84 1011.15 1012.22 1011.38 1011.01 1010.09 1008.90 1004.98 1003.21 1002.99 1003.45 1003.56 1003.68 1003.47 1003.59 1003.70 1003.87 1003.47 1002.88 1002.35 1001.54 1000.61 999.92 999.76 998.65 997.74 997.15 997.49 997.56 998.34 998.81 998.69 999.22 999.70 1000.43 1001.72 1002.47 1003.50
1018.60 1017.92 1017.19 1016.31 1015.40 1015.01 1013.87 1011.33 1010.92 1010.95 1009.86 1007.56 1005.98 1005.02 1002.96 1002.85 1002.70 1002.99 1003.09 1003.39 1003.22 1003.33 1003.13 1002.99 1002.76 1001.68 1001.12 1000.78 1000.11 999.24 998.46 998.27 997.31 996.60 997.12 997.62 997.51 997.96 998.67 999.37 999.73 1000.06 1000.86 1001.76 1002.76
1018.77 1018.04 1017.20 1016.42 1015.49 1014.43 1014.05 1011.13 1010.60 1010.30 1008.36 1006.57 1005.25 1004.46 1003.32 1002.51 1002.53 1002.98 1003.17 1003.31 1002.95 1002.60 1002.73 1002.51 1001.57 1001.07 1000.49 1000.01 999.71 999.15 998.17 997.37 996.97 996.66 997.11 997.65 997.92 997.81 998.70 999.48 1000.14 1000.92 1001.03 1001.31 1002.02
1018.83 1018.12 1017.26 1016.26 1015.25 1014.18 1011.86 1011.07 1010.23 1009.55 1007.85 1003.99 1003.37 1003.20 1003.06 1002.71 1002.17 1001.76 1002.53 1002.58 1002.26 1002.15 1001.73 1001.23 1000.47 1000.52 1000.04 999.38 998.94 998.63 998.31 997.79 997.17 997.12 997.82 998.07 998.20 998.45 999.23 999.98 1000.99 1001.98 1002.17 1002.16 1002.13
1018.87 1018.16 1017.38 1016.15 1015.27 1012.30 1010.91 1010.72 1010.04 1009.71 1007.37 1002.06 1001.37 1001.38 1002.15 1002.24 1001.74 1001.86 1001.50 1002.12 1001.88 1001.43 1001.39 1000.58 1000.25 999.25 999.28 998.80 998.62 998.34 998.47 998.25 997.69 997.49 997.63 998.56 998.39 998.23 998.94 999.99 1001.15 1002.29 1002.69 1002.91 1003.13
1018.88 1018.21 1017.43 1017.07 1015.45 1011.91 1011.48 1010.66 1010.12 1009.59 1005.36 1000.42 1000.55 1000.85 1000.82 1001.47 1000.24 1000.71 1001.64 1001.43 1001.02 1000.73 1000.79 1000.02 999.73 999.06 998.51 998.47 998.29 998.62 998.42 998.48 998.35 998.05 997.96 997.99 998.51 997.66 998.16 999.84 1001.30 1002.43 1003.25 1003.84 1004.05
1018.83 1018.30 1017.69 1014.56 1014.55 1012.18 1011.53 1010.63 1009.97 1008.19 1003.39 1000.44 1000.40 1000.50 1000.86 1000.72 1000.96 1000.68 1001.00 1001.37 1001.25 1000.79 1000.02 999.43 998.90 998.85 998.31 998.37 998.52 999.01 998.68 998.60 998.41 998.75 998.29 998.21 998.19 997.55 997.68 999.23 1001.34 1002.97 1003.78 1004.76 1005.14
1018.59 1018.13 1017.85 1016.55 1013.73 1012.72 1011.99 1010.49 1008.72 1005.80 1002.41 1000.93 1000.49 1000.20 1000.30 1000.22 1000.35 1000.54 1000.23 1000.70 1000.30 1000.39 999.34 999.08 998.29 997.85 997.99 998.22 998.43 998.82 998.81 999.05 999.28 998.86 998.11 998.13 998.17 997.90 998.35 999.86 1001.59 1003.24 1004.66 1005.67 1006.19
1018.30 1017.88 1016.26 1014.89 1013.57 1012.88 1012.02 1010.16 1007.74 1004.56 1002.92 1002.17 1002.15 1001.74 1000.86 1000.04 999.90 1000.01 999.87 999.73 1000.01 999.70 999.14 998.31 997.72 997.14 997.12 997.65 997.93 998.27 998.66 998.30 998.05 997.83 997.53 997.63 997.15 998.53 999.65 1000.63 1001.94 1003.62 1004.78 1005.92 1006.75
1017.95 1015.78 1014.62 1013.27 1013.33 1013.23 1011.96 1009.45 1006.60 1005.35 1004.48 1004.02 1003.89 1002.87 1001.79 1000.68 999.98 999.53 999.54 998.86 999.14 999.48 998.62 997.63 997.06 997.01 997.07 997.88 998.00 997.80 998.05 998.61 998.29 997.96 997.45 996.57 998.93 999.88 1000.66 1001.38 1002.50 1003.49 1004.54 1005.94 1006.79
1017.75 1014.72 1013.20 1013.36 1013.56 1013.14 1011.88 1009.43 1007.70 1006.54 1005.91 1005.33 1005.05 1004.43 1002.92 1001.47 1000.47 999.62 998.64 998.47 998.00 998.42 998.81 997.58 997.05 996.60 996.53 997.59 997.59 997.12 997.97 998.50 998.23 998.12 997.60 997.25 998.28 999.72 1001.13 1002.12 1003.09 1003.70 1004.40 1005.81 1006.87
1017.68 1014.08 1013.48 1013.75 1013.51 1012.89 1011.13 1009.17 1008.02 1007.17 1006.99 1006.67 1006.01 1005.61 1004.41 1002.94 1001.96 1000.66 999.13 997.62 997.52 997.53 998.03 997.67 997.09 996.12 995.95 996.36 997.00 997.09 997.05 997.58 998.10 998.21 997.66 998.71 999.62 998.34 1000.73 1002.21 1003.71 1003.97 1004.59 1005.71 1006.55
1016.50 1013.52 1013.82 1013.91 1013.25 1011.66 1010.50 1009.44 1008.91 1008.26 1008.04 1007.70 1006.94 1006.25 1005.68 1004.64 1003.54 1002.42 1000.05 997.76 996.56 996.79 996.89 997.18 997.15 996.40 995.44 995.89 996.71 996.70 996.71 997.08 997.36 997.94 997.87 998.83 1000.46 1000.29 1003.60 1004.57 1002.73 1004.90 1004.83 1006.17 1007.06
1016.06 1013.25 1013.93 1014.09 1012.53 1010.97 1010.23 1009.78 1009.22 1008.70 1008.66 1008.29 1007.60 1007.09 1006.31 1005.39 1004.68 1003.45 1000.50 998.13 996.45 995.68 996.10 996.84 997.01 996.89 996.14 995.87 996.18 996.05 996.26 996.55 997.25 997.83 998.23 999.01 1000.12 1002.48 1003.60 1004.16 1007.32 1007.41 1006.92 1006.89 1006.97
1017.03 1013.45 1013.19 1013.45 1013.18 1012.88 1011.95 1011.13 1010.23 1009.65 1009.16 1009.06 1008.46 1007.83 1006.91 1005.63 1005.17 1003.64 1001.47 998.75 996.78 994.92 995.66 996.63 996.82 996.95 995.85 995.22 995.77 996.01 995.69 996.12 996.91 997.31 998.02 998.64 1000.35 1003.27 1005.14 1005.93 1007.15 1008.37 1008.08 1007.88 1007.92
1017.20 1014.37 1014.49 1013.47 1012.66 1013.13 1012.92 1012.24 1011.30 1010.45 1009.99 1009.42 1008.55 1007.95 1007.33 1006.45 1005.98 1004.91 1003.13 1000.18 997.72 995.03 995.80 996.35 996.86 997.05 996.25 995.99 995.05 995.18 995.33 995.44 995.96 996.67 997.57 998.68 1000.64 1002.33 1004.67 1006.33 1007.69 1008.29 1007.79 1007.98 1008.86
1017.63 1015.96 1015.93 1015.03 1014.31 1013.98 1013.44 1012.72 1011.54 1010.98 1010.25 1009.54 1009.25 1008.64 1007.97 1007.57 1007.22 1006.76 1005.38 1003.43 1001.00 998.05 996.11 996.67 997.21 997.23 996.50 995.64 994.48 994.31 994.80 994.86 995.10 995.81 997.22 998.99 1002.86 1004.59 1004.57 1006.31 1007.31 1008.72 1008.57 1009.40 1009.80
1017.90 1017.21 1016.99 1015.73 1015.03 1014.46 1013.52 1013.13 1012.29 1011.71 1010.62 1009.49 1009.31 1008.57 1007.86 1008.03 1008.66 1007.78 1006.63 1005.70 1003.06 1001.30 999.16 997.44 997.76 997.69 996.74 996.22 994.19 993.74 993.76 994.22 994.66 995.86 997.02 998.85 1002.71 1004.14 1006.23 1006.94 1007.17 1008.27 1008.75 1009.84 1010.71
Wind_Speed
9 10 12 13 13 15 16 16 17 18 18 19 22 22 22 21 25 6 6 3 2 8 3 9 12 14 13 16 17 15 13 6 8 21 14 3 15 15 8 14 13 11 18 19 19
9 9 10 11 12 14 15 17 18 18 18 20 22 23 22 19 16 18 3 6 4 6 8 12 11 11 11 13 13 11 13 7 11 13 6 12 4 11 1 20 16 15 20 19 19
14 11 10 11 13 12 15 17 18 19 19 20 22 23 25 19 12 7 6 5 5 8 14 17 12 11 13 15 15 13 14 4 22 12 9 6 12 7 6 12 19 16 18 17 17
15 14 13 12 14 14 14 16 19 19 19 20 21 22 28 7 5 6 6 6 4 7 12 13 13 13 14 15 16 14 15 12 5 7 4 9 6 4 11 14 19 14 18 15 15
15 14 14 12 12 15 15 17 18 20 19 19 19 19 14 10 11 10 8 9 9 8 12 12 13 13 15 16 17 14 13 15 9 3 6 5 5 6 17 15 17 17 16 15 14
15 16 15 16 16 16 16 16 19 19 20 18 17 19 8 14 4 15 13 10 12 14 13 13 10 14 15 17 18 15 9 16 10 8 9 8 6 8 15 16 17 15 15 13 13
13 15 16 17 18 17 18 17 18 19 19 20 15 8 10 20 7 2 7 11 13 15 11 10 12 8 10 14 16 18 16 10 17 12 8 10 9 9 15 16 14 16 14 13 13
14 15 16 16 18 19 19 19 20 21 21 19 9 6 9 14 11 18 11 12 9 9 10 14 8 13 14 13 13 13 15 14 16 15 13 8 6 18 12 17 16 15 14 12 13
17 16 16 19 20 20 21 23 24 23 20 13 6 10 13 3 13 12 13 14 13 11 9 9 11 13 14 15 13 13 13 18 19 19 15 16 12 3 8 9 17 16 14 13 12
17 17 17 19 20 21 22 27 24 9 11 11 13 10 18 14 13 15 15 16 12 11 11 11 9 14 15 14 14 14 16 16 17 19 18 13 14 22 14 12 9 16 16 14 13
19 20 20 22 23 21 17 9 6 8 11 14 9 13 11 14 5 8 9 13 17 12 15 16 13 16 19 20 19 21 16 18 17 14 18 16 12 17 10 9 6 9 15 15 15
20 20 21 21 23 24 13 9 8 9 12 17 25 23 22 12 12 13 14 13 19 19 18 17 18 20 19 20 19 20 20 14 16 9 8 13 13 4 12 10 9 3 2 9 15
18 19 21 24 24 12 9 8 9 12 9 12 23 25 21 19 15 15 21 19 16 22 20 21 20 22 22 20 20 19 18 14 16 8 5 6 13 9 13 13 10 3 2 2 1
18 20 22 26 10 12 3 7 9 9 7 7 11 12 22 21 24 20 17 18 20 22 22 21 22 22 20 20 18 16 13 17 16 14 10 15 14 15 14 13 12 8 2 5 3
17 19 21 14 12 7 12 11 9 8 7 8 10 4 8 24 6 24 27 21 24 22 16 21 22 23 18 20 14 14 18 19 18 15 15 18 12 12 20 18 13 11 8 7 4
17 18 19 7 9 11 13 12 8 8 6 2 8 5 11 19 26 21 25 25 20 24 24 23 23 23 21 19 16 18 17 9 8 10 13 16 15 13 14 21 18 13 13 9 8
18 16 13 10 8 12 11 9 7 7 9 3 8 4 10 14 18 25 21 25 22 21 24 23 26 22 22 19 17 20 16 8 10 12 14 18 18 2 16 21 20 16 14 12 8
18 14 10 9 10 8 9 7 6 9 5 16 13 17 19 13 17 21 26 22 28 28 17 20 20 27 14 16 17 18 17 12 18 13 15 18 17 13 16 19 20 18 16 15 13
19 7 7 2 6 6 8 7 4 4 14 12 14 16 17 16 15 19 25 25 26 27 24 20 23 23 18 16 23 16 20 19 21 20 12 11 17 15 18 20 21 21 20 16 15
8 9 5 6 5 6 6 9 12 14 16 13 15 13 19 21 19 18 23 26 25 28 28 24 14 22 23 17 23 24 15 15 13 17 16 9 21 14 21 21 21 21 20 19 16
7 6 8 8 3 6 8 12 16 13 12 18 14 19 22 21 20 22 27 22 24 27 27 25 18 15 20 20 20 17 21 14 13 11 14 7 6 13 23 22 22 22 19 17 17
7 5 8 5 6 6 8 11 9 15 14 18 21 18 21 21 18 27 28 25 25 26 28 27 9 15 21 18 20 20 19 18 10 12 10 4 6 18 16 7 22 14 19 16 15
6 4 5 3 6 5 11 15 18 13 15 19 19 22 22 22 16 23 25 24 25 27 25 22 15 11 17 17 20 20 21 18 11 10 8 10 6 16 21 18 6 7 10 15 13
7 4 4 4 6 7 12 14 15 13 17 15 22 21 25 25 16 24 27 29 24 23 23 17 10 13 14 15 17 20 20 17 17 8 9 7 15 21 16 18 16 13 12 14 14
5 3 6 6 5 10 12 15 17 19 18 20 20 25 24 14 13 19 16 21 25 14 16 18 12 16 21 19 22 21 21 19 20 17 12 9 14 21 25 21 16 14 13 15 14
5 5 7 11 11 11 11 12 17 16 16 15 19 20 22 8 11 24 25 16 14 21 13 13 9 14 17 14 17 22 21 21 20 15 12 13 20 19 20 12 13 7 3 11 12
2 5 4 5 7 9 9 13 13 16 20 13 15 15 17 11 13 16 18 18 23 19 16 11 10 11 16 24 23 20 22 22 15 14 16 18 17 25 20 15 15 12 13 11 10
Wind_Direction
346 339 331 334 335 329 333 328 331 326 324 323 319 318 322 326 312 210 261 35 281 166 229 215 224 244 244 262 263 273 277 299 33 136 231 19 104 114 125 116 85 66 111 137 147
328 337 334 330 324 324 327 328 327 321 326 323 317 318 321 329 310 281 117 160 163 170 227 218 214 228 239 259 249 248 270 41 3 186 193 100 61 77 261 123 109 98 113 131 154
330 328 329 323 324 329 323 323 320 321 325 319 317 318 318 322 289 85 174 175 179 213 262 284 242 225 243 249 252 254 267 315 196 36 353 21 43 27 66 98 128 120 127 143 157
329 329 327 320 314 317 317 319 317 318 317 315 316 321 316 288 334 85 163 167 181 218 254 264 245 247 241 244 248 246 267 294 6 111 323 353 346 91 86 73 105 120 133 149 163
331 332 328 315 309 306 313 315 312 310 312 311 316 325 326 301 272 132 171 151 189 208 241 241 232 238 241 248 254 245 253 263 261 233 277 333 262 64 103 105 105 119 135 153 166
333 333 334 328 320 311 307 305 305 305 306 305 314 316 265 276 84 146 186 166 238 218 246 242 244 258 262 254 264 255 239 268 256 237 238 268 267 184 103 111 120 136 136 149 161
334 331 329 325 321 312 304 299 294 296 296 300 310 285 268 252 290 205 217 205 218 251 251 255 265 258 269 277 264 280 274 261 258 238 232 246 268 187 140 135 140 130 141 140 158
334 330 326 322 317 310 300 295 294 294 298 298 300 245 258 257 251 251 212 228 238 260 267 281 263 268 263 261 272 269 254 257 234 235 223 238 324 130 151 146 150 142 132 149 158
338 331 328 322 318 310 302 298 291 289 280 268 252 223 254 142 220 229 213 226 222 228 241 271 267 244 239 243 253 244 240 230 257 198 224 210 127 103 203 180 146 139 148 157 162
341 334 326 320 316 313 308 290 279 300 223 226 257 244 240 234 208 223 218 231 224 220 224 224 240 232 236 217 229 217 228 252 227 212 205 217 170 190 168 176 167 143 159 161 167
340 336 331 323 317 316 322 311 193 174 218 235 203 227 292 210 86 196 196 217 224 214 223 212 225 223 227 228 233 264 216 217 251 215 186 226 217 167 154 171 125 163 156 163 167
337 332 326 320 313 315 296 297 28 320 289 255 254 256 261 269 201 216 205 210 216 216 216 234 226 236 234 239 230 249 264 252 230 175 171 186 237 182 131 105 77 14 339 158 164
333 328 323 319 315 293 269 10 316 324 277 268 223 234 225 245 225 221 200 208 215 220 222 226 228 223 246 235 245 226 247 252 260 141 132 239 252 157 137 132 113 79 319 42 276
331 327 323 324 295 334 20 332 312 334 276 250 192 219 222 225 238 233 212 209 229 226 231 238 239 245 216 245 230 244 230 256 254 245 200 189 234 236 169 158 150 144 118 84 45
325 325 323 323 309 351 344 314 323 271 286 89 115 73 198 210 235 206 225 207 225 222 218 231 243 241 245 230 234 231 244 218 247 254 255 193 220 261 187 153 158 126 127 109 86
321 321 331 335 231 334 323 312 271 231 239 145 130 210 229 206 227 260 200 235 222 237 241 243 224 229 247 245 205 240 246 292 214 242 241 245 252 240 155 164 137 140 103 90 83
313 308 305 309 316 321 319 278 234 257 27 341 353 216 227 244 217 226 210 212 220 220 229 231 240 221 228 210 231 227 228 205 218 227 236 223 226 162 114 127 138 128 121 120 108
308 302 275 264 282 317 292 257 260 317 329 355 335 332 307 265 246 216 239 208 219 228 223 224 218 230 196 215 218 213 224 221 209 214 227 225 211 143 114 114 122 122 127 122 116
306 243 250 97 358 299 282 244 285 355 343 358 324 288 278 280 277 229 226 238 218 220 231 224 229 214 190 216 233 194 219 230 265 291 273 201 87 116 139 140 136 141 136 130 124
312 297 78 329 358 277 263 262 306 323 316 313 293 306 294 297 294 265 242 230 226 215 232 246 241 223 199 204 229 241 197 227 240 256 270 185 156 161 169 162 148 145 136 131 128
272 248 87 345 303 252 257 291 308 309 328 297 294 279 286 286 306 303 301 234 224 225 215 241 250 235 201 196 217 216 232 212 239 248 257 153 184 200 163 158 157 148 132 127 125
284 267 83 318 268 238 262 283 311 304 299 289 288 269 278 288 298 300 291 287 217 212 212 228 243 252 238 188 210 227 224 228 223 235 266 118 147 84 129 288 110 115 130 123 125
275 315 111 295 273 306 333 320 311 283 291 291 278 275 268 271 285 276 281 277 280 201 214 211 223 242 255 196 206 226 216 223 219 254 283 274 141 98 91 109 103 123 130 122 132
284 278 147 215 273 284 302 303 299 303 295 281 285 281 277 260 263 273 296 296 300 251 197 199 199 227 230 202 195 214 227 213 226 233 233 233 143 127 120 135 158 158 160 147 121
269 5 23 299 303 337 320 312 301 296 293 294 283 261 256 272 289 292 301 329 327 196 183 187 220 222 249 287 200 199 216 219 215 212 228 240 140 154 136 130 149 179 156 122 123
299 337 344 299 311 305 290 277 275 294 287 287 292 279 277 223 265 297 304 345 306 336 191 176 214 232 250 250 224 197 197 229 204 189 213 181 84 106 104 107 100 116 205 112 102
260 310 279 285 275 285 304 316 306 293 299 268 283 261 278 286 214 277 287 296 288 300 317 192 198 222 246 217 226 203 192 205 197 215 218 225 123 121 131 153 149 162 110 117 117